3 Gehege Außen am Haus Messungen

Zurück zum Überblick

Zeitpunkt Temperatur Luftfeuchte
27.03.2019 03:15:06 17,9 C 48,0%
27.03.2019 03:08:05 17,4 C 49,0%
27.03.2019 03:01:03 17,5 C 48,0%
27.03.2019 02:54:02 17,7 C 48,0%
27.03.2019 02:47:00 17,5 C 49,0%
27.03.2019 02:39:58 17,5 C 48,0%
27.03.2019 02:32:57 17,8 C 48,0%
27.03.2019 02:25:56 17,8 C 48,0%
27.03.2019 02:18:54 17,5 C 48,0%
27.03.2019 02:11:53 17,7 C 48,0%
27.03.2019 02:04:50 17,9 C 48,0%
27.03.2019 01:57:47 17,7 C 48,0%
27.03.2019 01:50:46 17,5 C 48,0%
27.03.2019 01:43:43 17,7 C 48,0%
27.03.2019 01:36:41 17,9 C 48,0%
27.03.2019 01:29:40 17,5 C 48,0%
27.03.2019 01:22:38 17,6 C 48,0%
27.03.2019 01:15:36 17,8 C 48,0%
27.03.2019 01:08:33 17,8 C 48,0%
27.03.2019 01:01:32 17,5 C 48,0%
27.03.2019 00:54:31 17,7 C 48,0%
27.03.2019 00:47:29 17,9 C 48,0%
27.03.2019 00:40:27 17,6 C 48,0%
27.03.2019 00:33:25 17,5 C 48,0%
27.03.2019 00:26:21 17,8 C 48,0%
27.03.2019 00:19:19 18,0 C 48,0%
27.03.2019 00:12:16 17,5 C 48,0%
27.03.2019 00:05:15 17,6 C 48,0%
26.03.2019 23:58:13 17,8 C 48,0%
26.03.2019 23:51:10 18,0 C 48,0%
26.03.2019 23:44:07 17,5 C 48,0%
26.03.2019 23:37:06 17,7 C 48,0%
26.03.2019 23:30:05 17,9 C 48,0%
26.03.2019 23:23:03 17,9 C 48,0%
26.03.2019 23:16:02 17,5 C 48,0%
26.03.2019 23:09:00 17,7 C 48,0%
26.03.2019 23:01:57 17,9 C 47,0%
26.03.2019 22:54:54 17,9 C 48,0%
26.03.2019 22:47:53 17,5 C 48,0%
26.03.2019 22:40:51 17,7 C 48,0%
26.03.2019 22:33:48 17,9 C 47,0%
26.03.2019 22:26:46 17,8 C 48,0%
26.03.2019 22:19:43 17,7 C 47,0%
26.03.2019 22:12:42 17,9 C 47,0%
26.03.2019 22:05:40 18,1 C 47,0%
26.03.2019 21:58:37 18,1 C 47,0%
26.03.2019 21:51:35 17,8 C 48,0%
26.03.2019 21:44:34 17,9 C 48,0%
26.03.2019 21:37:31 18,1 C 47,0%
26.03.2019 21:30:28 18,3 C 47,0%